Vorticity
nan nan nan nan nan nan nan nan nan nan nan nan nan nan nan nan nan nan nan nan nan nan nan nan nan nan nan nan nan nan nan nan nan nan nan nan nan nan nan nan nan nan nan nan nan nan nan
nan -0 2 1 0 0 1 9 23 27 21 14 15 17 17 16 10 8 7 6 5 5 6 5 6 14 12 2 11 10 7 7 8 7 8 6 7 10 10 7 8 7 9 8 10 8 nan
nan 5 3 1 3 4 4 2 14 23 20 15 16 16 13 7 5 8 7 6 5 6 7 6 9 14 10 7 2 3 8 10 9 5 7 5 7 7 10 8 9 9 10 9 7 8 nan
nan 8 2 5 6 6 8 4 5 6 3 5 5 5 4 4 5 5 4 5 5 7 6 7 10 12 5 10 7 7 9 8 8 6 7 5 9 10 8 6 7 13 10 8 10 8 nan
nan 8 11 9 6 7 7 4 1 2 3 5 6 4 4 5 4 5 6 6 7 10 11 10 9 8 6 9 13 14 8 8 9 9 6 9 12 10 8 10 4 12 8 5 9 11 nan
nan 6 8 11 14 10 5 5 4 2 3 5 7 6 5 4 4 5 9 14 12 13 14 8 5 6 12 11 9 14 12 10 7 9 11 9 9 7 5 9 9 5 6 9 7 10 nan
nan 9 8 4 12 16 11 8 4 2 5 7 8 6 5 5 5 6 10 15 15 9 9 7 -1 -3 1 5 8 12 10 7 9 10 11 5 6 8 5 -4 6 6 5 5 6 8 nan
nan 11 10 10 11 11 11 18 17 6 7 8 8 7 7 7 7 4 7 7 5 5 13 12 6 9 3 1 2 5 13 8 8 6 4 8 11 6 6 7 4 3 4 2 5 14 nan
nan 10 10 10 10 11 13 15 15 16 9 7 7 7 9 8 4 4 8 2 -2 13 17 13 17 14 21 13 7 5 4 8 7 10 7 3 8 11 6 3 7 8 7 7 4 7 nan
nan 7 6 6 5 6 8 11 9 18 19 10 8 8 8 3 5 9 7 9 7 9 10 15 14 14 14 9 21 18 -2 6 9 11 7 8 10 6 7 7 8 7 10 9 11 10 nan
nan 6 6 6 6 7 6 5 8 12 29 22 8 10 6 0 3 6 8 11 11 9 9 15 10 13 15 4 7 22 13 5 9 5 5 8 14 19 12 8 2 9 13 15 16 9 nan
nan 7 8 7 7 7 7 6 6 8 18 31 21 8 -0 -2 6 8 9 12 11 11 7 8 13 10 6 6 1 11 16 12 11 6 3 5 1 7 12 17 9 7 10 8 12 12 nan
nan 6 6 6 6 8 7 7 7 6 5 12 25 19 0 3 8 9 8 9 10 5 9 11 10 12 6 11 6 5 12 11 1 9 11 10 9 4 2 7 18 10 2 3 6 10 nan
nan 5 6 6 7 8 9 9 6 7 6 4 9 14 10 6 11 7 7 10 9 7 3 4 13 13 6 1 13 10 2 11 8 -4 12 12 17 24 11 8 5 12 2 5 10 7 nan
nan 7 7 7 7 7 7 9 8 7 6 9 9 8 12 10 7 9 9 9 6 5 9 8 11 15 12 -0 11 20 8 2 15 8 -5 5 7 13 19 20 4 8 13 5 2 4 nan
nan 7 7 7 7 7 7 7 9 8 6 11 9 10 10 13 9 6 9 8 4 2 5 11 12 12 17 19 13 9 12 9 13 14 4 -7 9 9 18 13 7 9 5 5 12 13 nan
nan 8 8 8 7 7 7 7 8 9 8 6 8 11 11 11 8 7 11 10 10 4 6 7 9 9 8 11 14 9 9 10 19 25 24 -0 4 -3 5 18 8 6 -0 3 12 13 nan
nan 8 7 8 8 8 7 7 7 9 8 6 8 7 13 13 6 6 11 7 5 8 12 6 7 10 8 10 12 13 18 9 0 15 26 22 11 13 -2 -4 5 12 12 3 5 11 nan
nan 6 7 7 7 8 8 6 7 8 8 8 10 7 9 13 12 9 9 8 6 7 8 11 7 3 6 3 8 8 6 12 12 11 9 21 20 16 10 15 15 11 13 6 -3 11 nan
nan 6 6 6 7 7 8 8 7 9 7 7 9 7 11 11 9 8 9 11 11 15 8 3 7 11 7 9 8 -1 4 8 6 6 7 15 17 21 17 10 21 22 21 21 8 5 nan
nan 8 7 7 7 7 8 9 8 8 6 5 11 12 11 8 11 10 3 11 8 8 13 8 7 5 4 8 7 11 8 8 12 6 6 8 9 8 10 9 14 11 18 22 14 13 nan
nan 9 8 7 7 8 8 8 8 8 4 6 10 7 11 11 14 14 6 8 10 8 6 8 9 10 7 4 2 9 14 9 11 9 7 6 6 8 10 7 8 7 4 9 15 7 nan
nan 9 8 7 9 9 9 8 8 6 3 5 7 11 14 9 10 12 10 5 6 13 15 8 8 14 13 15 13 11 9 7 11 5 5 11 10 9 9 9 8 12 12 10 12 5 nan
nan 9 8 8 8 8 7 8 8 8 1 5 10 10 9 11 11 5 5 6 7 8 5 8 18 14 3 9 18 15 10 8 8 7 7 9 8 7 12 9 8 8 8 13 17 13 nan
nan 9 7 8 8 8 8 8 8 9 3 5 9 9 8 11 8 8 7 7 9 10 10 10 13 8 10 14 7 9 8 15 18 15 8 6 7 9 13 8 5 18 21 15 10 12 nan
nan 8 7 7 7 9 9 8 11 11 6 6 10 10 6 11 11 10 11 11 14 14 16 21 21 21 14 7 13 12 10 9 11 20 17 8 8 7 8 10 10 14 10 11 4 3 nan
nan 8 7 7 7 9 10 12 11 8 6 3 11 9 7 9 10 12 12 7 7 10 11 16 25 22 11 3 8 11 11 11 13 10 12 8 15 12 6 7 8 10 10 10 7 8 nan
nan 9 9 9 9 10 12 13 11 8 4 -1 8 11 6 8 14 11 8 3 -0 3 5 10 10 13 14 11 7 11 12 11 11 11 11 9 10 12 11 7 12 10 10 14 9 9 nan
nan nan nan nan nan nan nan nan nan nan nan nan nan nan nan nan nan nan nan nan nan nan nan nan nan nan nan nan nan nan nan nan nan nan nan nan nan nan nan nan nan nan nan nan nan nan nan
CAPE
5 4 3 3 2 1 0 0 0 0 0 0 0 0 0 0 0 0 0 0 0 0 0 0 0 0 0 0 0 0 0 0 0 0 0 0 0 0 0 0 0 0 0 0 0 0 0
8 7 4 4 2 1 1 0 0 0 0 0 0 0 0 0 0 0 0 0 0 0 0 0 0 0 0 0 0 0 0 0 0 0 0 0 0 0 0 0 0 0 0 0 0 0 0
21 20 4 8 7 6 8 0 0 0 0 0 0 0 0 0 0 0 0 0 0 0 0 0 0 0 0 0 0 0 0 0 0 0 0 0 0 0 0 0 0 0 0 0 0 0 0
38 18 18 19 14 3 7 0 0 0 0 0 0 0 0 0 0 0 0 0 0 0 0 0 0 0 0 0 0 0 0 0 0 0 0 0 0 0 0 0 0 0 0 0 0 0 0
39 21 32 28 10 11 11 7 0 1 0 0 0 0 0 0 0 0 0 0 0 0 0 0 0 0 0 0 0 0 0 0 0 0 0 0 0 0 0 0 0 0 0 0 0 0 0
23 16 23 10 29 31 28 38 29 0 0 2 2 2 0 0 0 0 0 0 0 0 0 0 0 0 0 0 0 0 0 0 0 0 0 0 0 0 0 0 0 0 0 0 0 0 0
33 33 29 11 5 44 65 55 7 8 0 6 13 7 5 5 6 2 0 0 0 0 0 0 0 0 0 0 0 0 0 0 0 0 0 0 0 0 0 0 0 0 0 0 0 0 0
47 40 38 16 6 6 0 1 26 11 20 16 12 7 7 7 1 0 0 0 0 0 0 0 0 0 0 0 0 0 0 0 0 0 0 0 0 0 0 0 0 0 0 0 0 0 0
27 22 29 30 21 6 3 9 0 27 36 23 10 7 15 13 3 0 0 0 0 0 0 0 0 0 0 0 0 0 0 0 0 0 0 0 0 0 0 0 0 0 0 0 0 0 0
0 0 0 4 0 0 1 2 1 0 24 20 12 10 9 0 0 0 0 0 0 0 0 0 0 0 0 0 0 0 0 0 0 0 0 0 0 0 0 0 0 0 0 0 0 0 0
0 0 0 0 0 0 0 0 0 1 5 30 12 10 0 0 0 0 0 0 0 0 0 0 0 0 0 0 0 0 0 0 0 0 0 0 0 0 0 0 0 0 0 0 0 0 0
0 0 0 0 0 0 0 0 0 1 1 29 6 4 0 0 0 0 0 0 0 1 0 0 0 0 0 0 0 0 0 0 0 0 0 0 0 0 0 0 0 0 0 0 0 0 0
13 8 0 0 0 0 0 0 0 0 0 0 0 12 0 0 0 0 0 0 1 2 0 0 0 0 0 0 0 0 0 0 0 0 0 0 0 0 0 0 0 0 0 0 0 0 0
10 0 0 0 0 5 9 1 0 0 0 0 0 10 7 0 0 0 0 2 0 0 0 0 0 0 0 0 0 0 0 0 0 0 0 0 0 0 0 0 0 0 0 0 0 0 0
5 0 0 0 0 2 5 6 6 0 0 0 0 0 19 1 0 0 0 0 0 0 0 0 0 0 0 0 0 0 0 0 0 0 0 0 0 0 0 0 0 0 0 0 0 0 0
6 3 1 0 0 0 0 0 3 2 0 0 0 0 0 0 0 10 1 2 0 0 0 0 0 0 0 0 0 0 0 0 0 0 0 0 0 0 0 0 0 0 0 0 0 0 0
13 11 9 4 1 0 0 0 0 1 0 0 0 0 0 0 8 5 0 1 0 0 0 0 0 0 0 0 0 0 1 0 7 0 0 0 0 0 0 0 0 0 0 0 0 0 0
10 6 4 2 2 1 0 0 0 0 2 0 0 0 0 15 15 0 0 1 0 0 0 0 0 0 0 1 0 0 13 64 0 0 0 0 0 0 0 0 0 0 0 0 0 0 0
21 11 2 0 2 3 5 0 0 0 6 0 0 0 0 0 3 2 13 11 0 0 1 0 0 0 0 0 0 26 84 11 0 0 8 2 0 0 0 0 0 0 0 0 0 0 0
36 17 10 7 2 0 0 4 0 0 9 0 0 0 0 1 0 0 0 0 4 0 0 0 2 1 0 0 2 0 0 9 3 2 1 1 2 0 0 0 0 0 0 0 0 0 0
51 40 23 12 3 0 2 2 0 0 18 0 0 0 0 4 0 2 3 0 0 0 0 0 1 11 1 7 0 12 0 0 2 7 3 2 5 7 4 4 0 0 0 0 0 0 0
40 50 52 14 4 2 9 9 5 4 41 0 0 0 0 0 0 0 1 0 3 0 1 0 11 0 0 11 0 7 13 0 0 1 1 3 1 3 6 3 2 3 0 0 6 9 2
27 47 42 13 5 15 20 19 15 17 21 0 0 0 0 0 0 1 2 0 0 0 2 0 3 25 25 0 5 27 5 7 0 0 0 1 0 3 0 16 5 0 0 0 0 0 0
54 19 18 8 12 13 13 22 47 45 16 0 0 0 0 0 0 0 0 0 0 2 5 0 13 78 1 9 3 1 3 4 1 0 0 2 8 5 1 2 0 0 0 0 1 0 2
65 22 10 5 5 7 17 36 55 77 44 2 7 9 6 1 0 0 0 0 0 0 0 0 0 2 2 47 2 1 0 0 0 0 0 0 0 12 0 0 0 0 0 1 0 0 0
90 14 9 4 3 17 23 27 52 50 64 0 11 0 15 13 0 0 0 0 0 0 0 0 0 21 49 0 0 0 0 0 0 0 0 0 0 0 1 0 0 0 0 0 0 0 0
90 75 18 13 13 11 19 34 40 18 14 2 8 2 22 20 2 1 1 4 3 26 21 17 50 56 33 0 0 0 0 0 0 0 0 0 0 0 0 10 0 0 0 4 0 0 0
57 50 33 6 4 17 18 29 13 14 27 26 11 11 26 11 5 7 4 2 3 5 0 0 19 2 0 3 0 0 0 0 0 0 0 0 0 0 0 0 0 0 0 0 0 0 0
7 8 3 26 7 1 21 36 46 46 52 39 14 6 14 40 12 0 0 0 0 0 26 0 2 1 0 0 0 0 0 0 0 0 0 0 0 0 0 0 0 0 0 0 0 0 0